Notices

What's New in latest Release from April 7th, 2021:

- Updated Glossary, including Speed of Maximum Gust, and Total Hourly Precipitation

- Updated national and regional climate services offices contacts and prices information

- Addition of station inventory lists for 1981-2010, 1971-2000, and 1961-1990 Normals.

If you haven't already, please take our survey and provide feedback about our website: https://eccc.sondage-survey.ca/f/LanguageSelection.aspx?s=442ca660-fcf1-47c0-95a9-59707d6fd709

Hourly Data Report for July 29, 2018

TORONTO CITY
ONTARIO
Current Station Operator: ECCC - MSC

43°40'00.000" N
79°24'00.000" W
112.50 m
6158355
71508
XTO

Download Data

Hourly Data (July 2018)
Hourly Data Report for July 29, 2018
TIME
LST
Temp Definition
°C
Dew Point Definition
°C
Rel Hum Definition
%
Precip. Amount Definition
mm

Wind Dir Definition
10's deg

Wind Spd Definition
km/h
Visibility Definition
km
Stn Press Definition
kPa
Hmdx Definition


Wind Chill Definition


Weather Definition


00:00 17.0 11.6 71 0.0 LegendMM LegendMM   100.49     LegendNANA
01:00 17.0 11.6 71 0.0 LegendMM LegendMM   100.48     LegendNANA
02:00 15.6 11.6 77 0.0 LegendMM LegendMM   100.54     LegendNANA
03:00 15.1 12.0 81 0.0 LegendMM LegendMM   100.58     LegendNANA
04:00 15.0 11.8 81 0.0 LegendMM LegendMM   100.60     LegendNANA
05:00 14.7 12.0 83 0.0 LegendMM LegendMM   100.63     LegendNANA
06:00 15.0 12.2 83 0.0 LegendMM LegendMM   100.63     LegendNANA
07:00 17.7 12.0 69 0.0 LegendMM LegendMM   100.65     LegendNANA
08:00 20.3 11.2 56 0.0 LegendMM LegendMM   100.64     LegendNANA
09:00 22.4 11.4 50 0.0 LegendMM LegendMM   100.63     LegendNANA
10:00 23.0 11.8 49 0.0 LegendMM LegendMM   100.62 25   LegendNANA
11:00 24.4 11.8 45 0.0 LegendMM LegendMM   100.62 27   LegendNANA
12:00 24.1 11.1 44 0.0 LegendMM LegendMM   100.58 26   LegendNANA
13:00 24.9 11.6 43 0.0 LegendMM LegendMM   100.54 27   LegendNANA
14:00 26.2 12.8 44 0.0 LegendMM LegendMM   100.51 29   LegendNANA
15:00 23.6 12.6 50 0.0 LegendMM LegendMM   100.52 26   LegendNANA
16:00 22.8 15.4 63 0.0 LegendMM LegendMM   100.48 27   LegendNANA
17:00 24.4 13.0 49 0.0 LegendMM LegendMM   100.51 27   LegendNANA
18:00 21.0 13.1 61 0.0 LegendMM LegendMM   100.55     LegendNANA
19:00 22.1 12.7 55 0.0 LegendMM LegendMM   100.51 25   LegendNANA
20:00 21.2 12.1 56 0.0 LegendMM LegendMM   100.50     LegendNANA
21:00 21.1 13.5 62 0.0 LegendMM LegendMM   100.52     LegendNANA
22:00 20.5 14.7 69 0.0 LegendMM LegendMM   100.56     LegendNANA
23:00 20.5 16.4 77 0.0 LegendMM LegendMM   100.60 25   LegendNANA

Notes on Data Quality.

Legend

  • E = Estimated
  • M = Missing
  • NA = Not Available*
  • [empty] = Indicates an unobserved value
Date modified: